Regional Weather Roundup
Issued by NWS

Home | Current Version | Previous Version | Text Only | Print | Product List | Glossary Off
Versions: 1 2 3 4 5 6 7 8 9 10 11 12 13 14 15 16 17 18 19 20 21 22 23 24 25 26 27 28 29 30 31 32 33 34 35 36 37 38 39 40 41 42 43 44 45 46 47 48 49 50

000
ASUS43 KMPX 281010
RWRMN
WEATHER ROUNDUP FOR MINNESOTA
NATIONAL WEATHER SERVICE TWIN CITIES/CHANHASSEN MN
500 AM CDT THU APR 28 2016


NOTE: "FAIR" INDICATES FEW OR NO CLOUDS BELOW 12,000 FEET WITH NO
SIGNIFICANT WEATHER AND/OR OBSTRUCTIONS TO VISIBILITY. N/A MEANS
CURRENT SKY AND/OR WEATHER CONDITIONS ARE NOT AVAILABLE.

MNZ060>063-068>070-281100-
   Twin Cities Metro

CITY           SKY/WX    TMP DP  RH WIND       PRES   REMARKS
TWIN CITIES    CLOUDY    41  35  79 NE9       29.89R
ST PAUL        CLOUDY    40  35  83 NE8       29.91R
CRYSTAL        LGT RAIN  40  34  79 NE10      29.90R
BLAINE         LGT RAIN  39  34  81 NE9G17    29.91R
EDEN PRAIRIE   LGT RAIN  42  35  76 NE12      29.87R
SOUTH ST PAUL  CLOUDY    41  36  82 NE7       29.89R
LAKE ELMO      LGT RAIN  39  36  87 N10       29.89R
$$
MNZ001>005-007-008-013>017-022>024-027-028-281100-
   Northwest Minnesota

CITY           SKY/WX    TMP DP  RH WIND       PRES   REMARKS
BEMIDJI        CLOUDY    38  17  42 E8        30.05R
HALLOCK        CLOUDY    41  14  33 E10       30.10R
ROSEAU         CLOUDY    36  27  69 E7        30.12R
WARROAD        MOCLDY    37  28  70 NE9       30.13R
THIEF RVR FALL CLOUDY    37  18  44 NE10      30.08R
CROOKSTON      CLOUDY    39  21  48 E10       30.07R
FOSSTON        CLOUDY    39  19  45 E9        30.04S
DETROIT LAKES  CLOUDY    45  10  24 E12G22    30.00S
MOORHEAD       MOCLDY    43  27  52 NE10      30.00S
PARK RAPIDS    CLOUDY    43   9  24 E10       30.00R
MAHNOMEN       CLOUDY    42  17  37 E10       30.01S
$$
MNZ006-009>011-018-025>026-281100-
   North Central Minnesota

CITY           SKY/WX    TMP DP  RH WIND       PRES   REMARKS
BAUDETTE       CLOUDY    35  14  42 NE5       30.11R WCI  31
FLAG ISLAND    CLOUDY    39  18  41 NE9       30.13R
INTL FALLS     CLOUDY    36  17  46 E6        30.10R
WASKISH        CLOUDY    36  21  55 NE3       30.09R
BIG FORK       MOCLDY    30  19  64 CALM      30.08R
LONGVILLE      CLOUDY    39  10  30 NE6       30.02S
GRAND RAPIDS   CLOUDY    37  10  32 CALM      30.05S
CRANE LAKE     CLOUDY    27  25  93 CALM      30.11S
ORR            CLOUDY    32  14  47 CALM      30.06R
COOK           CLOUDY    30  19  64 CALM      30.08R
WALKER         CLOUDY    40  15  35 E9        30.03S
$$
MNZ012-019>021-037-281100-
   Northeast Minnesota

CITY           SKY/WX    TMP DP  RH WIND       PRES   REMARKS
DULUTH         CLOUDY    37  17  44 E17G25    30.02R
ELY            CLOUDY    30  19  64 CALM      30.08R
HIBBING        CLOUDY    35  12  38 NE7       30.04S WCI  29
EVELETH        CLOUDY    34  14  44 NE6       30.06S WCI  29
DULUTH HARBOR  CLOUDY    37  34  87 NE17      30.05S
TWO HARBORS    CLOUDY    39  25  56 NE10G16   30.03F
SILVER BAY     CLOUDY    37  23  56 NE12G18   30.06R
GRAND MARAIS     N/A     41  18  39 NE14      30.11R
G MARAIS ARPRT PTCLDY    34  12  40 NE8       30.08R WCI  27
$$
MNZ029>031-032-039>041-046>048-054>057-064-281100-
   West Central Minnesota

CITY           SKY/WX    TMP DP  RH WIND       PRES   REMARKS
FERGUS FALLS   CLOUDY    43  18  36 E6        29.96R
WHEATON        CLOUDY    39  30  70 NE9       29.98R
MORRIS         CLOUDY    37  30  75 NE12      29.93R
ALEXANDRIA       N/A     35  30  82 MISG      29.94R
ELBOW LAKE     FLURRIES  37  27  65 NE10      29.96R
WADENA         CLOUDY    39  16  38 E12G17    29.97R
GLENWOOD       CLOUDY    36  32  87 NE14      29.92R
APPLETON       CLOUDY    39  30  70 NE12      29.91R
BENSON         CLOUDY    39  28  65 E13       29.91S
ORTONVILLE     CLOUDY    39  30  70 NE15      29.92S
MADISON        CLOUDY    39  30  70 NE12      29.91R
WILLMAR        CLOUDY    39  30  70 E15G22    29.91R
$$
MNZ033>034-036-042>043-049>051-058-059-281100-
   Central Minnesota

CITY           SKY/WX    TMP DP  RH WIND       PRES   REMARKS
ST CLOUD       CLOUDY    37  27  67 NE8       29.93R
SAUK CENTRE    CLOUDY    35  31  82 NE13      29.93S WCI  27
PAYNESVILLE    CLOUDY    38  28  68 NE14      29.92R
AITKIN         CLOUDY    43   9  24 NE9       29.98F
PINE RIVER     MOCLDY    39  18  41 NE9       30.04S
BRAINERD       LGT RAIN  40  13  33 E9        29.99S
STAPLES        CLOUDY    39  14  35 NE7       29.98R
LONG PRAIRIE   CLOUDY    34  30  86 N12       29.94F WCI  25
LITTLE FALLS   CLOUDY    34  28  80 CALM      29.95F
LITCHFIELD     RAIN      39  34  81 NE12      29.91R
BUFFALO        CLOUDY    40  30  67 NE14G21   29.92R
MAPLE LAKE     LGT RAIN  39  32  75 NE8       29.93R
HUTCHINSON     RAIN      38  37  97 NE15      29.89S
$$
MNZ037-044-045-052-053-281100-
   East Central Minnesota

CITY           SKY/WX    TMP DP  RH WIND       PRES   REMARKS
PRINCETON      CLOUDY    39  27  60 NE9       29.93S
MORA           CLOUDY    36  23  60 NE7       29.97S
CAMBRIDGE      LGT RAIN  39  27  60 N7        29.91S
RUSH CITY      CLOUDY    37  25  61 NE8       29.94S
MOOSE LAKE     CLOUDY    37  18  44 NE8       29.98S
HINCKLEY       CLOUDY    37  23  56 NE8       29.96F
CLOQUET        CLOUDY    39  10  30 E14G20    30.00S
MCGREGOR       CLOUDY    39  18  41 NE7       30.01S
$$
MNZ071>073-080-081-089-090-097-098-281100-
   Southwest Minnesota

CITY           SKY/WX    TMP DP  RH WIND       PRES   REMARKS
MONTEVIDEO     CLOUDY    37  34  87 E12       29.92R
GRANITE FALLS  LGT RAIN  40  37  88 NE12      29.90R
CANBY          LGT RAIN  41  38  91 NE10      29.90R
MARSHALL       LGT SNOW  38  36  92 E16       29.86R FOG
REDWOOD FALLS  RAIN      39  37  92 NE8       29.87R FOG
OLIVIA         LGT RAIN  36  34  93 NE13G18   29.87S
PIPESTONE      LGT RAIN  39  37  93 E15G23    29.80R
WINDOM         DRIZZLE   37  37 100 NE17      29.81R
WORTHINGTON    CLOUDY    38  37  97 NE21      29.77S
JACKSON        LGT SNOW  37  36  93 NE18G26   29.78S
TRACY          RAIN      38  38  97 E15G21    29.85R
SLAYTON        DRIZZLE   37  37 100 NE16G22   29.82R
$$
MNZ065>067-074>077-082>085-091>093-281100-
   South Central Minnesota

CITY           SKY/WX    TMP DP  RH WIND       PRES   REMARKS
MANKATO        CLOUDY    39  34  81 NE15G21   29.84R
NEW ULM        LGT RAIN  37  37 100 NE10      29.85R
ST JAMES       DRIZZLE   34  32  93 NE12      29.83S WCI  25
FAIRMONT       CLOUDY    39  30  70 NE15G21   29.79R
GLENCOE        DRIZZLE   40  39  97 NE6       29.87R
FARIBAULT      CLOUDY    37  36  93 NE8       29.85R
OWATONNA       DRIZZLE   37  34  87 NE10      29.83R
ALBERT LEA     CLOUDY    37  37 100 E13       29.80R
$$
MNZ078>079-086>088-094>096-281100-
   Southeast Minnesota

CITY           SKY/WX    TMP DP  RH WIND       PRES   REMARKS
ROCHESTER      CLOUDY    38  32  79 E14       29.83R
RED WING       CLOUDY    45  28  53 E13       29.86R
STANTON        LGT RAIN  40  33  75 NE9       29.85R
DODGE CENTER   LGT RAIN  36  34  93 E14       29.82R
WINONA         CLOUDY    43  28  56 E7        29.86R
AUSTIN         CLOUDY    39  34  81 E10G21    29.80R
PRESTON        CLOUDY    38  31  76 E9        29.82R
$$
ABBREVIATIONS USED IN REMARKS
   TC - TEMPERATURES IN CELSIUS
  WCI - WIND CHILL INDEX
   HX - HEAT INDEX
  VSB - VISIBILITY
$$



USA.gov is the U.S. government's official web portal to all federal, state and local government web resources and services.